Location: Boiro
(42.6475°N, 8.8834°W)
Time: 03:27:21
(UTC+01:00)

Vanguard 1 Rocket - Pass Details

Date: 10 December 2021
Orbit: 651 x 4224 km, 34.3° (Epoch: 21 January)

Event Time Altitude Azimuth Distance (km) Brightness Sun altitude
Rises 07:11:09 0° 275° (W) 5,272 - -18.3°
Reaches altitude 10° 07:14:07 10° 269° (W) 4,647 - -17.8°
Exits shadow 07:16:15 18° 264° (W) 4,273 10.2 -17.4°
Maximum altitude 07:27:36 49° 200° (SSW) 3,796 10.4 -15.4°
Drops below altitude 10° 07:50:01 10° 135° (SE) 7,357 13.1 -11.5°
Sets 07:56:25 0° 131° (SE) 8,463 13.9 -10.4°
